Regional Weather Roundup
Issued by NWS

Home | Current Version | Previous Version | Text Only | Print | Product List | Glossary Off
Versions: 1 2 3 4 5 6 7 8 9 10 11 12 13 14 15 16 17 18 19 20 21 22 23 24 25 26 27 28 29 30 31 32 33 34 35 36 37 38 39 40 41 42 43 44 45 46 47 48 49 50

000
ASUS43 KIND 232100
RWRIN

WEATHER ROUNDUP FOR INDIANA
NATIONAL WEATHER SERVICE INDIANAPOLIS IN
500 PM EDT TUE MAY 23 2017

NOTE: "FAIR" INDICATES FEW OR NO CLOUDS BELOW 12,000 FEET WITH NO
SIGNIFICANT WEATHER AND/OR OBSTRUCTIONS TO VISIBILITY.

* - STATION DOES NOT REPORT WEATHER SUCH AS PRECIPITATION OR FOG.

+ - STATION NOT QUALITY CONTROLLED BY THE NATIONAL WEATHER SERVICE.
    USE DATA WITH CAUTION...ESPECIALLY DEWPOINT AND RELATIVE
    HUMIDITY OBSERVATIONS.

INZ001>003-010>013-019-020-232200-
NORTHWEST INDIANA

CITY           SKY/WX    TMP DP  RH WIND       PRES   REMARKS
GARY /AIRPORT/ CLOUDY    66  54  63 NE6       29.74F
MICHIGAN CITY+ CLOUDY    63  55  77 E3        29.73F
MONTICELLO +   CLOUDY    69  47  46 N3        29.71F
RENSSELAER +   CLOUDY    66  54  63 E9        29.71F

$$

LMZ046-743>745-232200-
SOUTHERN LAKE MICHIGAN

STATION/POSITION TIME  TEMP    WIND        PRES    WAVE
                       AIR SEA DIR/SP/G            HT
                 (UTC) (F)     (DEG/KT/KT) (MB)    (FT)
BURNS HARBOR     2040   57      80/  8/  9 1007.1F
MICHIGAN CITY    2030   56      40/  9/  9   N/A
5NW MICH CITY    2050   55 54   50/  8/ 10   N/A     1

$$

INZ004-005-014>016-021>024-232200-
NORTH CENTRAL INDIANA

CITY           SKY/WX    TMP DP  RH WIND       PRES   REMARKS
ELKHART        CLOUDY    63  54  72 N12       29.75F
GOSHEN         CLOUDY    65  53  65 NE14      29.74S
SOUTH BEND     LGT RAIN  60  57  89 NE8       29.76F
WARSAW +       PTSUNNY   68  50  52 E6        29.72F

$$

INZ006>009-017-018-025>027-232200-
NORTHEAST INDIANA

CITY           SKY/WX    TMP DP  RH WIND       PRES   REMARKS
ANGOLA *+      SUNNY     70  63  78 E8        29.73F
FORT WAYNE     PTSUNNY   74  43  32 N7        29.72F
KENDALLVILLE + CLOUDY    69  47  44 SE6       29.75R

$$

INZ028-029-035-036-043>045-051>053-232200-
WEST CENTRAL INDIANA

CITY           SKY/WX    TMP DP  RH WIND       PRES   REMARKS
CRAWFORDSVL +  CLOUDY    69  44  40 CALM      29.71F
GREENCASTLE +  MOSUNNY   70  46  43 CALM      29.71S
LAFAYETTE      CLOUDY    68  49  50 S3        29.70F
TERRE HAUTE    CLOUDY    72  45  37 CALM      29.70F

$$

INZ030>032-037>040-046>048-054>057-064-065-232200-
CENTRAL INDIANA

CITY           SKY/WX    TMP DP  RH WIND       PRES   REMARKS
GREENWOOD *+   PTSUNNY   74  45  35 S5        29.70F
INDIANAPOLIS   PTSUNNY   71  48  43 SW5       29.70F
-EAGLE CREEK   MOSUNNY   74  43  32 S8        29.69F
KOKOMO +       MOSUNNY   72  47  40 NE7       29.72F
SHELBYVILLE    CLOUDY    76  44  32 VRB3      29.68F

$$

INZ033-034-041-042-049-050-058-059-232200-
EAST CENTRAL INDIANA

CITY           SKY/WX    TMP DP  RH WIND       PRES   REMARKS
MUNCIE         MOSUNNY   76  40  27 SE10      29.70F
RICHMOND +     CLOUDY    70  45  40 S3        29.71F

$$

INZ060-061-067>069-081>083-085>088-232200-
SOUTHWEST INDIANA

CITY           SKY/WX    TMP DP  RH WIND       PRES   REMARKS
EVANSVILLE     CLOUDY    77  45  32 SW5       29.68F
HUNTINGBURG *+ PTSUNNY   73  49  42 CALM      29.69F

$$

INZ062-063-066-070>080-084-089>092-232200-
SOUTH CENTRAL AND SOUTHEAST INDIANA

CITY           SKY/WX    TMP DP  RH WIND       PRES   REMARKS
BLOOMINGTON    PTSUNNY   71  50  47 S5        29.69F
MADISON *+     CLOUDY    73  48  40 CALM      29.70F

$$





USA.gov is the U.S. government's official web portal to all federal, state and local government web resources and services.